Time,TemperatureF,DewpointF,PressureIn,WindDirection,WindDirectionDegrees,WindSpeedMPH,WindSpeedGustMPH,Humidity,HourlyPrecipIn,Conditions,Clouds,dailyrainin,SoftwareType,DateUTC
2013-05-26 00:10:00,45.0,36.9,30.15,West,277,2.0,2.0,73,0.00,,,0.00,Wunderground v.1.15,2013-05-26 04:10:00,
2013-05-26 00:11:00,44.9,37.0,30.15,West,277,0.0,5.0,74,0.00,,,0.00,weatherlink.com 1.10,2013-05-26 04:11:00,
2013-05-26 00:26:00,44.7,37.0,30.15,WNW,288,0.0,4.0,74,0.00,,,0.00,weatherlink.com 1.10,2013-05-26 04:26:00,
2013-05-26 00:40:00,44.5,37.1,30.14,WNW,300,1.0,6.0,75,0.00,,,0.00,Wunderground v.1.15,2013-05-26 04:40:00,
2013-05-26 00:56:00,44.5,37.0,30.14,WNW,290,1.0,4.0,75,0.00,,,0.00,weatherlink.com 1.10,2013-05-26 04:56:00,
2013-05-26 01:10:00,44.1,37.0,30.14,West,278,1.0,1.0,76,0.00,,,0.00,Wunderground v.1.15,2013-05-26 05:10:00,
2013-05-26 01:11:00,44.1,37.0,30.14,West,278,3.0,3.0,76,0.00,,,0.00,weatherlink.com 1.10,2013-05-26 05:11:00,
2013-05-26 01:26:00,44.0,37.0,30.14,West,280,2.0,4.0,77,0.00,,,0.00,weatherlink.com 1.10,2013-05-26 05:26:00,
2013-05-26 01:40:00,43.8,37.1,30.13,West,259,1.0,1.0,77,0.00,,,0.00,Wunderground v.1.15,2013-05-26 05:40:00,
2013-05-26 01:56:00,43.8,37.0,30.13,WNW,283,0.0,3.0,78,0.00,,,0.00,weatherlink.com 1.10,2013-05-26 05:56:00,
2013-05-26 02:10:00,43.7,37.3,30.13,WNW,286,1.0,1.0,78,0.00,,,0.00,Wunderground v.1.15,2013-05-26 06:10:00,
2013-05-26 02:26:00,43.4,37.0,30.13,WNW,292,0.0,4.0,79,0.00,,,0.00,weatherlink.com 1.10,2013-05-26 06:26:00,
2013-05-26 02:40:00,43.2,37.1,30.13,WNW,294,1.0,6.0,79,0.00,,,0.00,Wunderground v.1.15,2013-05-26 06:40:00,
2013-05-26 02:57:00,43.2,37.0,30.12,WNW,282,0.0,5.0,79,0.00,,,0.00,weatherlink.com 1.10,2013-05-26 06:57:00,
2013-05-26 03:10:00,43.3,37.2,30.12,WNW,296,2.0,2.0,79,0.00,,,0.00,Wunderground v.1.15,2013-05-26 07:10:00,
2013-05-26 03:11:00,43.2,37.0,30.12,WNW,283,1.0,5.0,79,0.00,,,0.00,weatherlink.com 1.10,2013-05-26 07:11:00,
2013-05-26 03:26:00,43.4,37.0,30.12,WNW,288,1.0,5.0,79,0.00,,,0.00,weatherlink.com 1.10,2013-05-26 07:26:00,
2013-05-26 03:40:00,43.6,37.2,30.12,WNW,302,2.0,6.0,78,0.00,,,0.00,Wunderground v.1.15,2013-05-26 07:40:00,
2013-05-26 03:57:00,44.0,37.0,30.12,WNW,290,0.0,10.0,77,0.00,,,0.00,weatherlink.com 1.10,2013-05-26 07:57:00,
2013-05-26 04:10:00,43.6,37.2,30.12,WSW,237,2.0,2.0,78,0.00,,,0.00,Wunderground v.1.15,2013-05-26 08:10:00,
2013-05-26 04:27:00,42.8,37.0,30.13,WNW,297,3.0,4.0,80,0.00,,,0.00,weatherlink.com 1.10,2013-05-26 08:27:00,
2013-05-26 04:40:00,42.5,37.1,30.13,West,261,1.0,6.0,81,0.00,,,0.00,Wunderground v.1.15,2013-05-26 08:40:00,
2013-05-26 04:57:00,42.0,37.0,30.13,NW,304,2.0,3.0,82,0.00,,,0.00,weatherlink.com 1.10,2013-05-26 08:57:00,
2013-05-26 05:10:00,42.1,37.0,30.13,West,279,2.0,2.0,82,0.00,,,0.00,Wunderground v.1.15,2013-05-26 09:10:00,
2013-05-26 05:27:00,42.0,37.0,30.14,WSW,251,2.0,6.0,82,0.00,,,0.00,weatherlink.com 1.10,2013-05-26 09:27:00,
2013-05-26 05:40:00,41.8,36.7,30.14,WNW,292,1.0,6.0,82,0.00,,,0.00,Wunderground v.1.15,2013-05-26 09:40:00,
2013-05-26 05:57:00,41.8,37.0,30.14,West,279,1.0,4.0,82,0.00,,,0.00,weatherlink.com 1.10,2013-05-26 09:57:00,
2013-05-26 06:10:00,42.0,36.9,30.15,NW,304,2.0,2.0,82,0.00,,,0.00,Wunderground v.1.15,2013-05-26 10:10:00,
2013-05-26 06:27:00,42.8,37.0,30.15,WSW,252,1.0,4.0,81,0.00,,,0.00,weatherlink.com 1.10,2013-05-26 10:27:00,
2013-05-26 06:40:00,43.5,37.7,30.16,WNW,282,2.0,6.0,80,0.00,,,0.00,Wunderground v.1.15,2013-05-26 10:40:00,
2013-05-26 06:57:00,44.7,38.0,30.16,NW,315,3.0,7.0,77,0.00,,,0.00,weatherlink.com 1.10,2013-05-26 10:57:00,
2013-05-26 07:10:00,45.4,38.3,30.16,WNW,288,4.0,6.0,76,0.00,,,0.00,Wunderground v.1.15,2013-05-26 11:10:00,
2013-05-26 07:27:00,46.2,38.0,30.16,WNW,294,6.0,9.0,74,0.00,,,0.00,weatherlink.com 1.10,2013-05-26 11:27:00,
2013-05-26 07:40:00,46.9,38.3,30.16,WNW,303,4.0,4.0,72,0.00,,,0.00,Wunderground v.1.15,2013-05-26 11:40:00,
2013-05-26 07:57:00,48.1,38.0,30.16,NW,305,5.0,10.0,69,0.00,,,0.00,weatherlink.com 1.10,2013-05-26 11:57:00,
2013-05-26 08:10:00,49.0,38.1,30.17,NW,318,4.0,7.0,66,0.00,,,0.00,Wunderground v.1.15,2013-05-26 12:10:00,
2013-05-26 08:27:00,49.6,38.0,30.18,NW,319,10.0,16.0,65,0.00,,,0.00,weatherlink.com 1.10,2013-05-26 12:27:00,
2013-05-26 08:40:00,50.4,39.1,30.18,NW,313,5.0,7.0,65,0.00,,,0.00,Wunderground v.1.15,2013-05-26 12:40:00,
2013-05-26 08:57:00,51.0,39.0,30.18,NW,306,5.0,9.0,64,0.00,,,0.00,weatherlink.com 1.10,2013-05-26 12:57:00,
2013-05-26 09:10:00,51.7,38.7,30.18,WNW,302,6.0,7.0,61,0.00,,,0.00,Wunderground v.1.15,2013-05-26 13:10:00,
2013-05-26 09:27:00,53.3,39.0,30.18,NW,308,0.0,8.0,59,0.00,,,0.00,weatherlink.com 1.10,2013-05-26 13:27:00,
2013-05-26 09:40:00,53.7,38.8,30.18,West,281,5.0,5.0,57,0.00,,,0.00,Wunderground v.1.15,2013-05-26 13:40:00,
2013-05-26 09:57:00,54.2,37.0,30.18,NW,314,6.0,15.0,53,0.00,,,0.00,weatherlink.com 1.10,2013-05-26 13:57:00,
2013-05-26 10:10:00,55.0,37.2,30.19,NW,308,6.0,8.0,51,0.00,,,0.00,Wunderground v.1.15,2013-05-26 14:10:00,
2013-05-26 10:28:00,56.5,37.0,30.18,North,360,6.0,12.0,49,0.00,,,0.00,weatherlink.com 1.10,2013-05-26 14:28:00,
2013-05-26 10:40:00,56.4,36.9,30.18,NW,309,6.0,6.0,48,0.00,,,0.00,Wunderground v.1.15,2013-05-26 14:40:00,
2013-05-26 10:58:00,57.5,36.0,30.18,WNW,282,4.0,14.0,44,0.00,,,0.00,weatherlink.com 1.10,2013-05-26 14:58:00,
2013-05-26 11:10:00,56.9,34.0,30.18,NE,51,7.0,7.0,42,0.00,,,0.00,Wunderground v.1.15,2013-05-26 15:10:00,
2013-05-26 11:27:00,57.4,33.0,30.18,NW,316,8.0,13.0,40,0.00,,,0.00,weatherlink.com 1.10,2013-05-26 15:27:00,
2013-05-26 11:40:00,56.7,33.2,30.18,NW,309,7.0,7.0,41,0.00,,,0.00,Wunderground v.1.15,2013-05-26 15:40:00,
2013-05-26 11:58:00,57.2,34.0,30.19,NW,316,5.0,13.0,42,0.00,,,0.00,weatherlink.com 1.10,2013-05-26 15:58:00,
2013-05-26 12:10:00,58.0,34.4,30.19,WNW,293,6.0,7.0,41,0.00,,,0.00,Wunderground v.1.15,2013-05-26 16:10:00,
2013-05-26 12:28:00,59.6,34.0,30.19,WNW,302,9.0,15.0,39,0.00,,,0.00,weatherlink.com 1.10,2013-05-26 16:28:00,
2013-05-26 12:40:00,58.6,35.0,30.19,NNW,347,7.0,12.0,41,0.00,,,0.00,Wunderground v.1.15,2013-05-26 16:40:00,
2013-05-26 12:58:00,58.8,34.0,30.19,WNW,300,8.0,15.0,40,0.00,,,0.00,weatherlink.com 1.10,2013-05-26 16:58:00,
2013-05-26 13:10:00,59.3,36.2,30.19,NW,312,6.0,8.0,42,0.00,,,0.00,Wunderground v.1.15,2013-05-26 17:10:00,
2013-05-26 13:28:00,59.3,34.0,30.19,NW,305,4.0,12.0,39,0.00,,,0.00,weatherlink.com 1.10,2013-05-26 17:28:00,
2013-05-26 13:40:00,59.9,34.2,30.18,NE,55,6.0,6.0,38,0.00,,,0.00,Wunderground v.1.15,2013-05-26 17:40:00,
2013-05-26 13:58:00,61.1,34.0,30.19,WNW,298,6.0,18.0,36,0.00,,,0.00,weatherlink.com 1.10,2013-05-26 17:58:00,
2013-05-26 14:10:00,60.0,34.3,30.19,West,281,6.0,6.0,38,0.00,,,0.00,Wunderground v.1.15,2013-05-26 18:10:00,
2013-05-26 14:28:00,60.9,36.0,30.19,NNW,330,5.0,11.0,39,0.00,,,0.00,weatherlink.com 1.10,2013-05-26 18:28:00,
2013-05-26 14:39:00,61.0,35.2,30.19,WNW,302,6.0,6.0,38,0.00,,,0.00,Wunderground v.1.15,2013-05-26 18:39:00,
2013-05-26 14:57:00,60.3,32.0,30.19,NW,307,5.0,15.0,34,0.00,,,0.00,weatherlink.com 1.10,2013-05-26 18:57:00,
2013-05-26 15:10:00,60.5,34.1,30.19,NW,321,7.0,7.0,37,0.00,,,0.00,Wunderground v.1.15,2013-05-26 19:10:00,
2013-05-26 15:28:00,61.2,35.0,30.18,WSW,254,10.0,12.0,37,0.00,,,0.00,weatherlink.com 1.10,2013-05-26 19:28:00,
2013-05-26 15:40:00,61.6,35.1,30.19,West,271,6.0,6.0,37,0.00,,,0.00,Wunderground v.1.15,2013-05-26 19:40:00,
2013-05-26 15:58:00,61.1,34.0,30.19,West,278,7.0,17.0,37,0.00,,,0.00,weatherlink.com 1.10,2013-05-26 19:58:00,
2013-05-26 16:10:00,61.3,34.1,30.19,NW,314,7.0,7.0,36,0.00,,,0.00,Wunderground v.1.15,2013-05-26 20:10:00,
2013-05-26 16:28:00,61.1,33.0,30.18,NW,316,6.0,14.0,35,0.00,,,0.00,weatherlink.com 1.10,2013-05-26 20:28:00,
2013-05-26 16:39:00,61.2,33.3,30.18,NW,320,7.0,7.0,35,0.00,,,0.00,Wunderground v.1.15,2013-05-26 20:39:00,
2013-05-26 16:57:00,62.4,33.0,30.19,NW,306,9.0,12.0,33,0.00,,,0.00,weatherlink.com 1.10,2013-05-26 20:57:00,
2013-05-26 17:10:00,62.2,34.2,30.18,West,279,7.0,7.0,35,0.00,,,0.00,Wunderground v.1.15,2013-05-26 21:10:00,
2013-05-26 17:28:00,61.8,33.0,30.18,WNW,290,2.0,15.0,34,0.00,,,0.00,weatherlink.com 1.10,2013-05-26 21:28:00,
2013-05-26 17:40:00,61.7,33.7,30.18,WNW,297,7.0,8.0,35,0.00,,,0.00,Wunderground v.1.15,2013-05-26 21:40:00,
2013-05-26 17:58:00,62.3,35.0,30.18,NW,311,5.0,10.0,36,0.00,,,0.00,weatherlink.com 1.10,2013-05-26 21:58:00,
2013-05-26 18:10:00,61.8,35.9,30.17,WNW,301,6.0,6.0,38,0.00,,,0.00,Wunderground v.1.15,2013-05-26 22:10:00,
2013-05-26 18:28:00,62.0,35.0,30.17,NW,304,2.0,10.0,36,0.00,,,0.00,weatherlink.com 1.10,2013-05-26 22:28:00,
2013-05-26 18:39:00,62.0,36.7,30.17,WNW,303,4.0,6.0,39,0.00,,,0.00,Wunderground v.1.15,2013-05-26 22:39:00,
2013-05-26 18:57:00,61.5,35.0,30.17,NW,318,6.0,8.0,37,0.00,,,0.00,weatherlink.com 1.10,2013-05-26 22:57:00,
2013-05-26 19:10:00,60.7,33.6,30.17,WNW,294,4.0,8.0,36,0.00,,,0.00,Wunderground v.1.15,2013-05-26 23:10:00,
2013-05-26 19:28:00,60.0,31.0,30.17,WNW,298,4.0,10.0,33,0.00,,,0.00,weatherlink.com 1.10,2013-05-26 23:28:00,
2013-05-26 19:40:00,59.5,31.8,30.17,NW,308,4.0,4.0,35,0.00,,,0.00,Wunderground v.1.15,2013-05-26 23:40:00,
2013-05-26 19:58:00,58.3,32.0,30.17,West,262,2.0,7.0,37,0.00,,,0.00,weatherlink.com 1.10,2013-05-26 23:58:00,
2013-05-26 20:10:00,57.6,32.2,30.17,WNW,295,3.0,3.0,38,0.00,,,0.00,Wunderground v.1.15,2013-05-27 00:10:00,
2013-05-26 20:28:00,55.9,33.0,30.18,WNW,298,4.0,4.0,42,0.00,,,0.00,weatherlink.com 1.10,2013-05-27 00:28:00,
2013-05-26 20:39:00,55.1,33.6,30.17,WNW,288,1.0,1.0,44,0.00,,,0.00,Wunderground v.1.15,2013-05-27 00:39:00,
2013-05-26 20:58:00,53.8,34.0,30.18,WNW,284,0.0,3.0,48,0.00,,,0.00,weatherlink.com 1.10,2013-05-27 00:58:00,
2013-05-26 21:10:00,53.3,34.6,30.18,WSW,241,0.0,6.0,49,0.00,,,0.00,Wunderground v.1.15,2013-05-27 01:10:00,
2013-05-26 21:28:00,52.4,34.0,30.18,WSW,241,0.0,2.0,50,0.00,,,0.00,weatherlink.com 1.10,2013-05-27 01:28:00,
2013-05-26 21:40:00,51.9,33.8,30.18,WSW,241,0.0,6.0,50,0.00,,,0.00,Wunderground v.1.15,2013-05-27 01:40:00,
2013-05-26 21:58:00,51.2,34.0,30.19,WSW,242,0.0,3.0,53,0.00,,,0.00,weatherlink.com 1.10,2013-05-27 01:58:00,
2013-05-26 22:10:00,50.6,35.5,30.19,WSW,242,0.0,6.0,56,0.00,,,0.00,Wunderground v.1.15,2013-05-27 02:10:00,
2013-05-26 22:28:00,49.7,37.0,30.19,SW,215,0.0,2.0,62,0.00,,,0.00,weatherlink.com 1.10,2013-05-27 02:28:00,
2013-05-26 22:39:00,49.2,37.9,30.19,WSW,238,0.0,6.0,65,0.00,,,0.00,Wunderground v.1.15,2013-05-27 02:39:00,
2013-05-26 22:58:00,49.6,39.0,30.19,West,274,2.0,3.0,67,0.00,,,0.00,weatherlink.com 1.10,2013-05-27 02:58:00,
2013-05-26 23:10:00,49.7,39.2,30.19,West,272,1.0,6.0,67,0.00,,,0.00,Wunderground v.1.15,2013-05-27 03:10:00,
2013-05-26 23:28:00,49.3,39.0,30.20,West,264,0.0,6.0,68,0.00,,,0.00,weatherlink.com 1.10,2013-05-27 03:28:00,
2013-05-26 23:40:00,49.0,39.3,30.20,WSW,258,0.0,6.0,69,0.00,,,0.00,Wunderground v.1.15,2013-05-27 03:40:00,
2013-05-26 23:59:00,48.5,38.0,30.20,West,274,0.0,3.0,68,0.00,,,0.00,weatherlink.com 1.10,2013-05-27 03:59:00,